This demonstration page uses our WeatherBlox Daily Observations layout. Learn more.

39.01783, -85.05884

Hourly Observations for August 12, 2019

Temp ( °F °C ) Dew Point ( °F °C ) Humidity (%) Winds ( mph kmh ) Pressure ( in mb ) Visibility ( mi km ) Precip ( " mm )
12:52 am 00:52 Partly Cloudy 72 22.2 59 15 64 64 S 3 6 29.94 1014 10 16.09344 0 0
1:52 am 01:52 Partly Cloudy 71 21.7 60 15.6 68 68 Calm 29.94 1014 10 16.09344 0 0
2:52 am 02:52 Partly Cloudy 71 21.7 59 15 66 66 Calm 29.94 1014 10 16.09344 0 0
3:52 am 03:52 Partly Cloudy 66 18.9 60 15.6 81 81 S 3 6 29.94 1014 10 16.09344 0 0
4:52 am 04:52 Mostly Cloudy 70 21.1 61 16.1 73 73 Calm 29.94 1014 10 16.09344 0 0
5:52 am 05:52 Mostly Cloudy 66 18.9 61 16.1 84 84 SSE 3 6 29.91 1013 10 16.09344 0 0
6:52 am 06:52 Mostly Cloudy 70 21.1 61 16.1 73 73 Calm 29.91 1013 10 16.09344 0 0
7:52 am 07:52 Mostly Cloudy 72 22.2 63 17.2 73 73 SE 5 7 29.94 1014 10 16.09344 0 0
8:52 am 08:52 Cloudy 73 22.8 64 17.8 74 74 S 6 9 29.94 1014 10 16.09344 0 0
9:52 am 09:52 Cloudy 75 23.9 63 17.2 66 66 S 8 13 29.94 1014 10 16.09344 0 0
10:52 am 10:52 Cloudy 78 25.6 64 17.8 62 62 S 8 13 29.94 1014 10 16.09344 0 0
11:52 am 11:52 Cloudy 80 26.7 63 17.2 56 56 SW 6 9 29.94 1014 10 16.09344 0 0
12:52 pm 12:52 Cloudy 80 26.7 63 17.2 56 56 SSW 8 13 29.94 1014 10 16.09344 0 0
1:52 pm 13:52 Cloudy 81 27.2 65 18.3 58 58 SW 6 9 29.91 1013 10 16.09344 0 0
2:52 pm 14:52 Cloudy 83 28.3 66 18.9 57 57 VRB 5 7 29.91 1013 10 16.09344 0 0
3:52 pm 15:52 Cloudy 82 27.8 66 18.9 58 58 S 6 9 29.85 1011 10 16.09344 0 0
4:52 pm 16:52 Cloudy 81 27.2 67 19.4 62 62 SSW 7 11 29.85 1011 10 16.09344 0 0
5:52 pm 17:52 Cloudy 81 27.2 68 20 65 65 SSW 3 6 29.85 1011 10 16.09344 0 0
6:52 pm 18:52 Mostly Cloudy 82 27.8 67 19.4 60 60 SSW 5 7 29.85 1011 10 16.09344 0 0
7:52 pm 19:52 Mostly Cloudy 80 26.7 67 19.4 64 64 SSW 5 7 29.85 1011 10 16.09344 0 0
8:52 pm 20:52 Cloudy 77 25 67 19.4 71 71 Calm 29.85 1011 10 16.09344 0 0
9:52 pm 21:52 Cloudy 76 24.4 68 20 77 77 S 5 7 29.85 1011 10 16.09344 0 0
10:52 pm 22:52 Cloudy 78 25.6 68 20 71 71 S 5 7 29.83 1010 10 16.09344 0 0
11:52 pm 23:52 Cloudy 77 25 69 20.6 77 77 S 3 6 29.83 1010 10 16.09344 0 0

Powered by AerisWeather